Weather History for Marshall, MN

Change the Weather History Date:

Sunday, October 28, 2012

  Actual Average Record
Temperature  
Mean Temperature 40 °F -  
Max Temperature 48 °F 54 °F 76 °F (1966)
Min Temperature 32 °F 31 °F 10 °F (1967)
Degree Days  
Heating Degree Days 25    
Moisture  
Dew Point 28 °F    
Average Humidity 65    
Maximum Humidity 75    
Minimum Humidity 46    
Precipitation  
Precipitation 0.00 in - - ()
Sea Level Pressure  
Sea Level Pressure 30.23 in    
Wind  
Wind Speed 9 mph (SSE)    
Max Wind Speed 18 mph    
Max Gust Speed 22 mph    
Visibility 10 miles    
Events      
Averages and records for this station are not official NWS values.
T = Trace of Precipitation, MM = Missing Value Source: NWS Daily Summary

Daily Weather History Graph

Daily Weather History Graph

Search for Another Location

Airport:

Trip Planner

Search our weather history database for the weather conditions in past years. The results will help you decide how hot, cold, wet, or windy it might be!

Date:

Astronomy

Oct. 28, 2012 Rise Set
Actual Time 7:55 AM CDT 6:17 PM CDT
Civil Twilight 7:25 AM CDT 6:47 PM CDT
Nautical Twilight 6:51 AM CDT 7:21 PM CDT
Astronomical Twilight 6:17 AM CDT 7:55 PM CDT
Moon 5:35 PM CDT 6:49 AM CDT
Length of Visible Light 11h 21m
Length of Day
10h 21m
Waxing Gibbous, 99% of the Moon is Illuminated
Oct 28
Waxing Gibbous
Oct 29
Full
Nov 6
Last Quarter
Nov 13
New
Nov 20
First Quarter

Hourly Weather History & Observations

Time (CDT) Temp. Windchill Dew Point Humidity Pressure Visibility Wind Dir Wind Speed Gust Speed Precip Events Conditions
12:15 AM 33.8 °F 28.6 °F 24.8 °F 70% 30.28 in 10.0 mi South 5.8 mph - N/A   Mostly Cloudy
12:35 AM 33.8 °F 28.6 °F 24.8 °F 70% 30.28 in 10.0 mi SSE 5.8 mph - N/A   Partly Cloudy
12:55 AM 32.0 °F 26.4 °F 24.8 °F 75% 30.27 in 10.0 mi SSE 5.8 mph - N/A   Mostly Cloudy
1:15 AM 33.8 °F 27.0 °F 24.8 °F 70% 30.27 in 10.0 mi SSE 8.1 mph - N/A   Overcast
1:35 AM 33.8 °F 27.7 °F 24.8 °F 70% 30.27 in 10.0 mi SSE 6.9 mph - N/A   Overcast
1:55 AM 33.8 °F 27.0 °F 24.8 °F 70% 30.26 in 10.0 mi SSE 8.1 mph - N/A   Overcast
2:15 AM 33.8 °F 27.0 °F 24.8 °F 70% 30.26 in 10.0 mi SSE 8.1 mph - N/A   Overcast
2:35 AM 33.8 °F 27.0 °F 24.8 °F 70% 30.26 in 10.0 mi SSE 8.1 mph - N/A   Overcast
2:55 AM 33.8 °F 26.4 °F 24.8 °F 70% 30.26 in 10.0 mi SSE 9.2 mph - N/A   Overcast
3:15 AM 33.8 °F 27.0 °F 26.6 °F 75% 30.26 in 10.0 mi SSE 8.1 mph - N/A   Overcast
3:35 AM 33.8 °F 27.0 °F 26.6 °F 75% 30.26 in 10.0 mi SSE 8.1 mph - N/A   Overcast
3:55 AM 33.8 °F 27.0 °F 26.6 °F 75% 30.25 in 10.0 mi SSE 8.1 mph - N/A   Overcast
4:15 AM 33.8 °F 26.4 °F 26.6 °F 75% 30.24 in 10.0 mi SSE 9.2 mph - N/A   Overcast
4:35 AM 33.8 °F 26.4 °F 26.6 °F 75% 30.25 in 10.0 mi South 9.2 mph - N/A   Overcast
4:55 AM 33.8 °F 27.0 °F 26.6 °F 75% 30.25 in 10.0 mi SSE 8.1 mph - N/A   Overcast
5:15 AM 35.6 °F 29.9 °F 26.6 °F 70% 30.25 in 10.0 mi SSE 6.9 mph - N/A   Overcast
5:35 AM 35.6 °F 29.2 °F 26.6 °F 70% 30.25 in 10.0 mi SSE 8.1 mph - N/A   Overcast
5:55 AM 35.6 °F 28.6 °F 26.6 °F 70% 30.25 in 10.0 mi SSE 9.2 mph - N/A   Overcast
6:15 AM 35.6 °F 28.6 °F 26.6 °F 70% 30.25 in 10.0 mi SSE 9.2 mph - N/A   Overcast
6:35 AM 35.6 °F 29.2 °F 26.6 °F 70% 30.25 in 10.0 mi SSE 8.1 mph - N/A   Overcast
6:55 AM 35.6 °F 29.2 °F 26.6 °F 70% 30.25 in 10.0 mi SSE 8.1 mph - N/A   Overcast
7:15 AM 33.8 °F 27.7 °F 26.6 °F 75% 30.26 in 10.0 mi SE 6.9 mph - N/A   Overcast
7:35 AM 33.8 °F 27.7 °F 26.6 °F 75% 30.26 in 10.0 mi SE 6.9 mph - N/A   Overcast
7:55 AM 33.8 °F 28.6 °F 26.6 °F 75% 30.26 in 10.0 mi SE 5.8 mph - N/A   Overcast
8:15 AM 32.0 °F 25.6 °F 24.8 °F 75% 30.26 in 10.0 mi SSE 6.9 mph - N/A   Mostly Cloudy
8:35 AM 33.8 °F 28.6 °F 26.6 °F 75% 30.27 in 10.0 mi SSE 5.8 mph - N/A   Mostly Cloudy
8:55 AM 33.8 °F 27.7 °F 26.6 °F 75% 30.27 in 10.0 mi SSE 6.9 mph - N/A   Mostly Cloudy
9:15 AM 33.8 °F 27.7 °F 26.6 °F 75% 30.27 in 10.0 mi South 6.9 mph - N/A   Mostly Cloudy
9:35 AM 35.6 °F 28.0 °F 26.6 °F 70% 30.27 in 10.0 mi South 10.4 mph - N/A   Overcast
9:55 AM 37.4 °F 30.8 °F 26.6 °F 65% 30.27 in 10.0 mi SSE 9.2 mph - N/A   Mostly Cloudy
10:15 AM 39.2 °F 31.2 °F 26.6 °F 61% 30.26 in 10.0 mi South 13.8 mph 17.3 mph N/A   Overcast
10:35 AM 39.2 °F 32.0 °F 26.6 °F 61% 30.26 in 10.0 mi South 11.5 mph - N/A   Overcast
10:55 AM 39.2 °F 32.0 °F 26.6 °F 61% 30.25 in 10.0 mi South 11.5 mph - N/A   Overcast
11:15 AM 41.0 °F 35.8 °F 28.4 °F 61% 30.25 in 10.0 mi South 8.1 mph - N/A   Mostly Cloudy
11:35 AM 42.8 °F 35.1 °F 26.6 °F 53% 30.24 in 10.0 mi South 16.1 mph - N/A   Mostly Cloudy
12:15 PM 44.6 °F 38.1 °F 28.4 °F 53% 30.24 in 10.0 mi South 13.8 mph 20.7 mph N/A   Overcast
12:35 PM 44.6 °F 37.4 °F 28.4 °F 53% 30.23 in 10.0 mi South 16.1 mph 19.6 mph N/A   Overcast
12:55 PM 44.6 °F 37.2 °F 28.4 °F 53% 30.22 in 10.0 mi SSW 17.3 mph 21.9 mph N/A   Overcast
1:15 PM 46.4 °F 39.5 °F 28.4 °F 50% 30.22 in 10.0 mi SSW 17.3 mph 20.7 mph N/A   Overcast
1:35 PM 46.4 °F 39.5 °F 28.4 °F 50% 30.21 in 10.0 mi South 17.3 mph 21.9 mph N/A   Overcast
1:55 PM 46.4 °F 39.5 °F 28.4 °F 50% 30.21 in 10.0 mi SSW 17.3 mph - N/A   Scattered Clouds
2:15 PM 46.4 °F 40.1 °F 28.4 °F 50% 30.20 in 10.0 mi South 15.0 mph - N/A   Clear
2:35 PM 46.4 °F 40.4 °F 30.2 °F 53% 30.20 in 10.0 mi South 13.8 mph - N/A   Partly Cloudy
2:55 PM 46.4 °F 39.8 °F 28.4 °F 50% 30.19 in 10.0 mi South 16.1 mph - N/A   Partly Cloudy
3:15 PM 48.2 °F - 30.2 °F 50% 30.19 in 10.0 mi SSW 13.8 mph 21.9 mph N/A   Partly Cloudy
3:35 PM 48.2 °F - 28.4 °F 46% 30.18 in 10.0 mi South 15.0 mph - N/A   Partly Cloudy
3:55 PM 48.2 °F - 30.2 °F 50% 30.18 in 10.0 mi South 15.0 mph 18.4 mph N/A   Clear
4:15 PM 48.2 °F - 28.4 °F 46% 30.17 in 10.0 mi South 16.1 mph 21.9 mph N/A   Clear
4:35 PM 48.2 °F - 30.2 °F 50% 30.18 in 10.0 mi SSW 18.4 mph - N/A   Clear
4:55 PM 48.2 °F - 28.4 °F 46% 30.17 in 10.0 mi South 13.8 mph - N/A   Partly Cloudy
5:15 PM 48.2 °F - 30.2 °F 50% 30.18 in 10.0 mi South 10.4 mph - N/A   Partly Cloudy
5:35 PM 46.4 °F 41.9 °F 30.2 °F 53% 30.18 in 10.0 mi South 9.2 mph - N/A   Mostly Cloudy
5:55 PM 46.4 °F 41.9 °F 30.2 °F 53% 30.18 in 10.0 mi SSE 9.2 mph - N/A   Overcast
6:15 PM 44.6 °F 39.7 °F 30.2 °F 57% 30.18 in 10.0 mi SSE 9.2 mph - N/A   Mostly Cloudy
6:35 PM 44.6 °F 39.2 °F 30.2 °F 57% 30.18 in 10.0 mi SSE 10.4 mph - N/A   Partly Cloudy
6:55 PM 42.8 °F 38.0 °F 30.2 °F 61% 30.18 in 10.0 mi SE 8.1 mph - N/A   Partly Cloudy
7:15 PM 41.0 °F 35.2 °F 30.2 °F 65% 30.18 in 10.0 mi SE 9.2 mph - N/A   Clear
7:35 PM 41.0 °F 34.7 °F 30.2 °F 65% 30.19 in 10.0 mi SE 10.4 mph - N/A   Clear
7:55 PM 42.8 °F 36.6 °F 30.2 °F 61% 30.19 in 10.0 mi SE 11.5 mph - N/A   Clear
8:15 PM 39.2 °F 32.5 °F 30.2 °F 70% 30.19 in 10.0 mi SE 10.4 mph - N/A   Clear
8:35 PM 39.2 °F 32.5 °F 28.4 °F 65% 30.19 in 10.0 mi SE 10.4 mph - N/A   Clear
8:55 PM 37.4 °F 30.8 °F 28.4 °F 70% 30.19 in 10.0 mi SE 9.2 mph - N/A   Clear
9:15 PM 37.4 °F 30.3 °F 28.4 °F 70% 30.19 in 10.0 mi SE 10.4 mph - N/A   Clear
9:35 PM 37.4 °F 29.8 °F 28.4 °F 70% 30.19 in 10.0 mi SE 11.5 mph - N/A   Clear
9:55 PM 35.6 °F 27.5 °F 28.4 °F 75% 30.19 in 10.0 mi SE 11.5 mph - N/A   Clear
10:15 PM 35.6 °F 28.0 °F 28.4 °F 75% 30.20 in 10.0 mi SE 10.4 mph - N/A   Clear
10:35 PM 35.6 °F 28.0 °F 28.4 °F 75% 30.20 in 10.0 mi SE 10.4 mph - N/A   Clear
10:55 PM 35.6 °F 28.6 °F 28.4 °F 75% 30.21 in 10.0 mi SE 9.2 mph - N/A   Clear
11:15 PM 35.6 °F 28.6 °F 28.4 °F 75% 30.21 in 10.0 mi SSE 9.2 mph - N/A   Clear
11:35 PM 35.6 °F 28.6 °F 28.4 °F 75% 30.21 in 10.0 mi SSE 9.2 mph - N/A   Clear
11:55 PM 35.6 °F 29.2 °F 28.4 °F 75% 30.21 in 10.0 mi SSE 8.1 mph - N/A   Clear